Location: Unspecified
(49.2170°N, 0.0000°E)
Time: 00:34:45
(UTC+00:00)

SR - Pass Details

Date: 27 January 2021
Orbit: 573 x 882 km, 66.7° (Epoch: 03 March)

Event Time Altitude Azimuth Distance (km) Brightness Sun altitude
Exits shadow 04:45:23 44° 10° (N) 1,037 ? -28.0°
Drops below altitude 10° 04:49:16 10° 32° (NNE) 2,356 ? -27.4°
Sets 04:51:50 0° 36° (NE) 3,336 ? -27.0°
